Regional Weather Roundup
Issued by NWS

Home | Current Version | Previous Version | Text Only | Print | Product List | Glossary On
Versions: 1 2 3 4 5 6 7 8 9 10 11 12 13 14 15 16 17 18 19 20 21 22 23 24 25 26 27 28 29 30 31 32 33 34 35 36 37 38 39 40 41 42 43 44 45 46 47 48 49 50
000
ASUS42 KTBW 270018
RWRFL
FLORIDA REGIONAL WEATHER ROUNDUP
NATIONAL WEATHER SERVICE TAMPA BAY RUSKIN FL
800 PM EDT WED JUL 26 2017

NOTE: "FAIR" INDICATES FEW OR NO CLOUDS BELOW 12,000 FEET WITH NO
SIGNIFICANT WEATHER AND/OR OBSTRUCTIONS TO VISIBILITY.

FLZ001>010-012>015-112-114-115-270100-
PANHANDLE FLORIDA

CITY           SKY/WX    TMP DP  RH WIND       PRES   REMARKS
PENSACOLA      CLOUDY    84  71  65 W5        30.03R
PENSACOLA NAS  MOCLDY    77  71  82 CALM      30.02F
MILTON NAS     MOCLDY    84  74  71 SW8       30.04  THUNDER
CRESTVIEW      TSTM      77  73  87 VRB6      30.05F FOG
DUKE FIELD     TSTM      84  71  64 N12       30.04R
VALPARAISO     MOCLDY    79  72  78 NW5       30.01S
MARY ESTHER    MOCLDY    80  72  78 W6        30.01S
PANAMA CITY    FAIR      84  77  79 SW6       29.99F
TYNDALL AFB    CLEAR     85  76  75 W10       30.00F
APALACHICOLA   CLOUDY    86  79  79 NW5       30.00F HX  99

STATION/POSITION SKY/WX   TEMP    WIND        PRES    WAVE   SWELL
                          AIR SEA DIR/SP/G            HT/PER HT/PER
                          (F)     (DEG/KT/KT) (MB)    (FT/S) (FT/S)
30.1N   87.6W              84 87  240/ 10/ 10 1016.7    1
29.2N   88.2W              84 86  330/  4/  6 1017.3F   1/ 3
28.8N   86.0W              84 87  310/  8/ 10 1016.3    1/ 4   2/ 4
PANAMA CITY BEAC           84     270/ 15/ 16 1016.4F
TOWER C          NOT AVBL
28.5N   84.5W              84 87  280/  8/ 12 1016.3    2/ 5   2/ 5

$$
FLZ011-016>038-118-127-128-134-139-239-270100-
NORTH FLORIDA

CITY           SKY/WX    TMP DP  RH WIND       PRES   REMARKS
MARIANNA       CLOUDY    80  75  84 CALM      30.00F
TALLAHASSEE    CLOUDY    87  77  72 S3        30.00S HX  99
PERRY          PTCLDY    86  75  68 N8        30.04R THUNDER HX  95
LIVE OAK       CLOUDY    77  77 100 CALM      30.05R
CROSS CITY     CLEAR     85  76  74 SW7       30.06R
LAKE CITY      TSTM      77  77 100 SE5G16    30.05R
GAINESVILLE    CLEAR     85  71  63 W8        30.02F
WILLISTON      CLEAR     88  75  66 S5        30.02R HX  97
PALATKA        MOCLDY    86  77  74 SE9       30.01R HX  97
MAYPORT NAS    TSTM      75  75 100 NE6       30.03F
JACKSONVILLE   LGT RAIN  76  76 100 E8        30.03F
JAX NAS        LGT RAIN  82  75  79 N9        30.03S
JAX CECIL      LGT RAIN  77  75  94 NE9       30.02
FERNANDINA BEA CLOUDY    79  77  94 CALM      30.02F
ST AUGUSTINE   CLOUDY    80  76  87 SE6       30.03R
PALM COAST     FAIR      83  78  84 SE7       30.02R

STATION/POSITION SKY/WX   TEMP    WIND        PRES    WAVE   SWELL
                          AIR SEA DIR/SP/G            HT/PER HT/PER
                          (F)     (DEG/KT/KT) (MB)    (FT/S) (FT/S)
SHELL POINT      NOT AVBL
KEATON BEACH               85     250/  9/ 11 1016.2R
CEDAR KEY                  86     260/  5/  6 1016.8F
FERNANDINA                 76 85  110/  3/  5 1017.7F
30.7N   81.3W                 79                N/A     2/ 6
MAYPORT                    76 83   50/  7/  9 1017.6R
31.4N   80.9W              81 81  100/  8/ 10 1017.3R   2/ 4   2/ 9
ST AUGUSTINE               80 77  130/  7/  8 1016.9R

$$
FLZ040-043>046-052-053-057-058-063-144-270100-
INTERIOR CENTRAL FLORIDA

CITY           SKY/WX    TMP DP  RH WIND       PRES   REMARKS
OCALA          CLEAR     87  74  64 W5        30.02S HX  95
THE VILLAGES     N/A     88  73  62 CALM      29.92R HX  96
LEESBURG       CLEAR     89  75  63 NW6       30.02R HX  99
SANFORD        CLOUDY    84  74  71 SE7       30.03R
ORLANDO EXEC   CLOUDY    85  74  69 SE10      30.02R
ORLANDO INTL   CLOUDY    84  76  76 E13       30.02R
KISSIMMEE      CLOUDY    85  77  77 SE6       30.03R HX  95
WINTER HAVEN   CLOUDY    89  71  55 SE6       30.03R HX  95
LAKELAND       MOCLDY    90  75  62 CALM      30.02R HX 100
BARTOW         MOCLDY    86  72  62 CALM      30.02R
SEBRING        FAIR      84  74  71 NE7       30.03R
OKEECHOBEE     CLEAR     84  73  70 SE6       30.03R

$$
FLZ041-047-054-059-064-141-147-270100-
EAST CENTRAL FLORIDA

CITY           SKY/WX    TMP DP  RH WIND       PRES   REMARKS
DAYTONA BEACH  MOCLDY    85  78  80 CALM      30.02R HX  96
DELAND         CLOUDY    84  73  70 SE7       30.01S
NEW SMYRNA BEA PTCLDY    82  77  83 SE7       30.03R
JFK SPACE CTR  MOCLDY    85  79  81 S7        30.02R HX  98
TITUSVILLE     MOCLDY    82  81  94 SE8       30.04R HX  95
CAPE CANAVERAL PTCLDY    85  79  83 S7        30.02R HX  97
PATRICK AFB    PTCLDY    84  80  88 S12       30.02R HX  96
MELBOURNE      PTCLDY    86  78  77 SE13      30.02R HX  98
VERO BEACH     CLEAR     85  76  74 SE12      30.04R
FT PIERCE      CLEAR     84  77  79 SE12      30.03R
STUART         PTCLDY    86  77  74 SE12      30.05R HX  97

STATION/POSITION SKY/WX   TEMP    WIND        PRES    WAVE   SWELL
                          AIR SEA DIR/SP/G            HT/PER HT/PER
                          (F)     (DEG/KT/KT) (MB)    (FT/S) (FT/S)
28.5N   80.2W              85 84  130/ 10/ 12 1018.2R   1/ 9   2/ 9
28.9N   78.5W              85 85  130/  2/  4 1017.3F   2/ 8   2/ 8
TRIDENT PIER               83 83  140/  5/  9 1018.7R
28.4N   80.5W                 82                N/A     2/ 3
27.5N   80.2W                 83                N/A     1/10

$$
FLZ050-056-061-142-242-148-248-149-249-151-251-155-255-
160-260-270100-
WEST CENTRAL FLORIDA

CITY           SKY/WX    TMP DP  RH WIND       PRES   REMARKS
CRYSTAL RIVER  FAIR      84  73  70 CALM      30.02S
INVERNESS      FAIR      86  77  74 CALM      30.02S HX  97
BROOKSVILLE    PTCLDY    86  74  67 NW8       30.03R
CLEARWATER AIR FAIR      84  73  70 NW8       30.02R
ST PETE CLEARW CLEAR     88  73  61 NW9       30.02R HX  95
TAMPA INTL     MOCLDY    89  71  55 NW8       30.02R HX  95
TAMPA EXEC     PTCLDY    90  72  55 N5        30.02R HX  96
PLANT CITY     CLOUDY    91  75  59 NW7       30.04R HX 102
MACDILL AFB    PTCLDY    88  74  63 NW6       30.01R HX  97
PETER O KNIGHT PTCLDY    90  73  58 W5        30.01S HX  98
ST PETERSBURG  CLEAR     90  72  55 N8        29.99S HX  97
SARASOTA       PTCLDY    87  72  60 NW8       30.00S
VENICE         FAIR      88  75  66 NW8       30.01S HX  97

STATION/POSITION SKY/WX   TEMP    WIND        PRES    WAVE   SWELL
                          AIR SEA DIR/SP/G            HT/PER HT/PER
                          (F)     (DEG/KT/KT) (MB)    (FT/S) (FT/S)
27.3N   84.2W                 89                N/A     1/ 5
CLEARWATER BEACH           86 90  320/  8/ 10 1016.8R
MIDDLE TAMPA BAY           88     310/  9/ 11 1016.2F
VENICE                     87 89  340/ 11/ 11 1016.2R

$$
FLZ066-069-070-075>078-162-262-165-265-270100-
SOUTHWEST FLORIDA AND KEYS

CITY           SKY/WX    TMP DP  RH WIND       PRES   REMARKS
PUNTA GORDA    CLOUDY    82  74  76 N8        30.02R
FT MYERS       CLOUDY    79  77  94 CALM      30.01R
SOUTHWEST INTL MOCLDY    83  73  72 CALM      30.01R
NAPLES         CLOUDY    82  77  84 E5        30.01R
MARCO ISLAND   MOCLDY    82  75  78 CALM      30.02S
IMMOKALEE      MOCLDY    84  75  74 CALM      30.03R
MARATHON       CLEAR     86  77  74 E6        30.01S HX  97
KEY WEST NAS   MOCLDY    85  78  80 E12       30.01S HX  96
KEY WEST INTL  CLOUDY    86  75  69 E12       30.01S HX  95

STATION/POSITION SKY/WX   TEMP    WIND        PRES    WAVE   SWELL
                          AIR SEA DIR/SP/G            HT/PER HT/PER
                          (F)     (DEG/KT/KT) (MB)    (FT/S) (FT/S)
NAPLES                        90   90/  4/  5 1016.2R
DRY TORTUGAS               87     100/  8/  8 1016.5R
SAND KEY                   85                 1016.7F
MOLASSES REEF              85 87   60/  8/ 10 1016.8R

$$
FLZ067-068-071>074-168-172>174-270100-
SOUTHEAST FLORIDA

CITY           SKY/WX    TMP DP  RH WIND       PRES   REMARKS
W PALM BEACH   PTCLDY    86  77  74 E9        30.03S HX  97
BOCA RATON     PTCLDY    86  77  74 SE7       30.03R HX  97
FT LAUDER-EXEC PTCLDY    86  73  65 E9        30.03R
FT LAUDERDALE  PTCLDY    86  76  71 E10       30.02R HX  96
POMPANO BEACH  PTCLDY    87  76  69 E9        30.03R HX  97
PEMBROKE PINES CLEAR     87  76  69 E8        30.04R HX  97
OPA LOCKA      PTCLDY    86  78  77 SE10      30.03R HX  98
MIAMI          PTCLDY    87  75  67 E10       30.02S HX  96
WEST KENDALL   CLEAR     86  74  67 E10       30.02S
HOMESTEAD      CLEAR     85  79  81 E6        30.02R HX  98

STATION/POSITION SKY/WX   TEMP    WIND        PRES    WAVE   SWELL
                          AIR SEA DIR/SP/G            HT/PER HT/PER
                          (F)     (DEG/KT/KT) (MB)    (FT/S) (FT/S)
PORT EVERGLADES            87     110/  4/  8 1016.6F
VIRGINIA KEY                       70/  9/ 12   N/A
LAKE WORTH                        140/  9/ 11   N/A
FOWEY ROCKS                85 87   90/ 11/ 12 1017.3R
SETTLEMENT POINT           85     150/  5/  7 1017.2F

$$




USA.gov is the U.S. government's official web portal to all federal, state and local government web resources and services.